Domov               UVHVVR             MKGP            O straneh              
ZDRAVSTVENO VARSTVO RASTLIN
  MREŽA AGROMET. POSTAJ
 ► PROGNOSTIČNA OBVESTILA
AGROMETEOROLOŠKI PODATKI -
ARSO
OBVLADOVANJE TVEGANJ ZARADI
NEUGODNIH VREMENSKIH RAZMER
  ► NARAVNE NESREČE
  ► SUŠA/MOČA
  ► NAMAKANJE
  ► ŽLED (gozdarstvo)
KARTOGRAFSKI PRIKAZI
SPLETNE POVEZAVE
PROJEKTI IN PUBLIKACIJE

AGROMETEOROLOŠKA MREŽA: VREMENSKE POSTAJE IN FENOLOŠKA OPAZOVANJA

Pregled podatkov za lokacijo Črnomelj, meteorološka postaja 859096

Pregled senzorjev na lokaciji

ID Ime Zadnja
vrednost
Datum
zadnje
spremembe
Tip
senzorja
4080 Temperatura 2 m ( °C) 21,34 °C 17.8.2017 07:15 50YA
4081 Relativna vlaga 2 m (% RH) 68,31 % RH 17.8.2017 07:15 50YA
4082 Omočenost lista (U) 0 U 17.8.2017 07:15 A730WET
4083 Padavine 0.2 mm (mm) 0 mm 17.8.2017 07:15 Rain-O-Matic

Pregled podatkov zadnjih 24 ur

Zap.
št.
Datum in čas Črnomelj
Omočenost
lista
Padavine
0.2
mm
Relativna
vlaga
2
m
Temperatura
2
m
0 17.8.2017 06:30 0 0 68,31 21,34
1 17.8.2017 06:00 0 0 74,2 19,32
2 17.8.2017 05:30 0 0 75,9 18,72
3 17.8.2017 05:00 0 0 74,19 19,1
4 17.8.2017 04:30 0 0 74,18 19,14
5 17.8.2017 04:00 0 0 71,02 19,83
6 17.8.2017 03:30 0 0 71,51 19,74
7 17.8.2017 03:00 0 0 70,48 19,99
8 17.8.2017 02:30 0 0 71,59 19,75
9 17.8.2017 02:00 0 0 71,12 19,79
10 17.8.2017 01:30 0 0 70,03 19,98
11 17.8.2017 01:00 0 0 69,51 20,1
12 17.8.2017 00:30 0 0 70,57 20,03
13 17.8.2017 00:00 0 0 70,9 20,09
14 16.8.2017 23:30 0 0 68,93 20,53
15 16.8.2017 23:00 0 0 70,16 20,4
16 16.8.2017 22:30 0 0 64,34 21,69
17 16.8.2017 22:00 0 0 62,93 21,97
18 16.8.2017 21:30 0 0 65,64 21,34
19 16.8.2017 21:00 0 0 62,44 21,76
20 16.8.2017 20:30 0 0 61,12 22,39
21 16.8.2017 20:00 0 0 58,6 23,09
22 16.8.2017 19:30 0 0 57,48 23,64
23 16.8.2017 19:00 0 0 51,36 24,73
24 16.8.2017 18:30 0 0 49,74 25,59
25 16.8.2017 18:00 0 0 47,33 26,2
26 16.8.2017 17:30 0 0 46,5 27,25
27 16.8.2017 17:00 0 0 43,76 27,83
28 16.8.2017 16:30 0 0 40,92 28,39
29 16.8.2017 16:00 0 0 38,1 28,16
30 16.8.2017 15:30 0 0 33,86 29,52
31 16.8.2017 15:00 0 0 32,47 30,8
32 16.8.2017 14:30 0 0 30,5 31,8
33 16.8.2017 14:00 0 0 31,56 31,62
34 16.8.2017 13:30 0 0 31,34 31,46
35 16.8.2017 13:00 0 0 32,41 31,06
36 16.8.2017 12:30 0 0 34,47 30,65
37 16.8.2017 12:00 0 0 34,7 30,37
38 16.8.2017 11:30 0 0 35,67 29,91
39 16.8.2017 11:00 0 0 38,33 29,18
40 16.8.2017 10:30 0 0 43,85 27,79
41 16.8.2017 10:00 0 0 47,37 26,17
42 16.8.2017 09:30 0 0 49,27 25,19
43 16.8.2017 09:00 0 0 52,74 24,36
44 16.8.2017 08:30 0 0 60,3 22,83
45 16.8.2017 08:00 0 0 66,09 21,58
© 2011 Ministrstvo za kmetijstvo, gozdarstvo in prehrano. Vse pravice pridržane.